Location: Unspecified
(0.0000°N, 0.0000°E)
Time: 04:48:43
(UTC+00:00)

Hubble Space Telescope - Pass Details

Date: 26 November 2020
Orbit: 536 x 540 km, 28.5° (Epoch: 03 December)

Event Time Altitude Azimuth Distance (km) Brightness Sun altitude
Rises 19:11:19 0° 278° (W) 2,664 5.3 -19.5°
Reaches altitude 10° 19:14:56 10° 311° (NW) 1,771 3.7 -20.3°
Maximum altitude 19:16:28 12° 333° (NNW) 1,657 3.3 -20.7°
Enters shadow 19:17:26 11° 347° (NNW) 1,702 3.2 -20.9°
